Weather History for Decatur, AL

Change the Weather History Date:

Wednesday, February 13, 2013

  Actual Average Record
Temperature  
Mean Temperature 42 °F -  
Max Temperature 46 °F 51 °F 82 °F (1962)
Min Temperature 37 °F 30 °F 7 °F (1981)
Degree Days  
Heating Degree Days 24    
Moisture  
Dew Point 39 °F    
Average Humidity 86    
Maximum Humidity 100    
Minimum Humidity 74    
Precipitation  
Precipitation 0.03 in - - ()
Sea Level Pressure  
Sea Level Pressure 29.87 in    
Wind  
Wind Speed 6 mph (WNW)    
Max Wind Speed 17 mph    
Max Gust Speed 26 mph    
Visibility 8 miles    
Events Rain    
Averages and records for this station are not official NWS values.
T = Trace of Precipitation, MM = Missing Value Source: NWS Daily Summary

Daily Weather History Graph

Daily Weather History Graph

Search for Another Location

Airport:

Trip Planner

Search our weather history database for the weather conditions in past years. The results will help you decide how hot, cold, wet, or windy it might be!

Date:

Astronomy

Feb. 13, 2013 Rise Set
Actual Time 6:35 AM CST 5:29 PM CST
Civil Twilight 6:09 AM CST 5:55 PM CST
Nautical Twilight 5:39 AM CST 6:24 PM CST
Astronomical Twilight 5:10 AM CST 6:54 PM CST
Moon 8:15 AM CST (2/13) 9:18 PM CST (2/13)
Length of Visible Light 11h 45m
Length of Day
10h 54m
Waxing Crescent, 14% of the Moon is Illuminated
Feb 13
Waxing Crescent
Feb 17
First Quarter
Feb 25
Full
Mar 4
Last Quarter
Mar 11
New

Hourly Weather History & Observations

Time (CST) Temp. Windchill Dew Point Humidity Pressure Visibility Wind Dir Wind Speed Gust Speed Precip Events Conditions
12:53 AM 45.0 °F 43.5 °F 41.0 °F 86% 29.77 in 10.0 mi East 3.5 mph - N/A   Overcast
1:28 AM 44.6 °F 43.1 °F 42.8 °F 93% 29.75 in 4.0 mi ESE 3.5 mph - 0.00 in   Overcast
1:53 AM 43.0 °F - 42.1 °F 97% 29.73 in 3.0 mi Calm Calm - 0.01 in   Overcast
2:03 AM 42.8 °F - 42.8 °F 100% 29.74 in 3.0 mi Calm Calm - N/A   Overcast
2:53 AM 43.0 °F - 43.0 °F 100% 29.72 in 2.5 mi Calm Calm - 0.01 in   Overcast
3:10 AM 44.6 °F - 42.8 °F 93% 29.73 in 3.0 mi Calm Calm - N/A   Overcast
3:46 AM 44.6 °F 43.1 °F 42.8 °F 93% 29.73 in 2.5 mi SW 3.5 mph - 0.00 in Rain Light Rain
3:53 AM 44.1 °F 41.5 °F 43.0 °F 96% 29.73 in 2.5 mi SSW 4.6 mph - 0.00 in Rain Light Rain
4:18 AM 44.6 °F 43.1 °F 44.6 °F 100% 29.72 in 3.0 mi SSW 3.5 mph - 0.00 in   Overcast
4:53 AM 45.0 °F 41.8 °F 44.1 °F 97% 29.73 in 3.0 mi SW 5.8 mph - 0.01 in   Overcast
5:25 AM 44.6 °F 41.4 °F 44.6 °F 100% 29.73 in 6.0 mi SSW 5.8 mph - N/A   Overcast
5:53 AM 45.0 °F 40.1 °F 44.1 °F 97% 29.75 in 8.0 mi SW 9.2 mph - N/A   Overcast
6:53 AM 45.0 °F 40.1 °F 44.1 °F 97% 29.78 in 5.0 mi West 9.2 mph - 0.00 in Rain Light Rain
7:35 AM 44.6 °F 37.8 °F 42.8 °F 93% 29.80 in 10.0 mi West 15.0 mph 24.2 mph 0.00 in   Overcast
7:53 AM 45.0 °F 38.9 °F 42.1 °F 90% 29.80 in 10.0 mi West 12.7 mph 23.0 mph 0.00 in   Overcast
8:01 AM 44.6 °F 39.7 °F 42.8 °F 93% 29.80 in 10.0 mi West 9.2 mph 19.6 mph N/A   Overcast
8:53 AM 46.0 °F 39.3 °F 41.0 °F 83% 29.83 in 10.0 mi West 16.1 mph 20.7 mph N/A   Overcast
9:53 AM 46.9 °F - 42.1 °F 83% 29.83 in 10.0 mi WNW 17.3 mph 21.9 mph N/A   Overcast
10:53 AM 45.0 °F 37.6 °F 39.0 °F 80% 29.86 in 10.0 mi West 17.3 mph 26.5 mph N/A   Overcast
11:53 AM 44.1 °F 36.8 °F 37.9 °F 79% 29.88 in 10.0 mi NW 16.1 mph 23.0 mph N/A   Overcast
12:53 PM 44.1 °F 38.6 °F 37.0 °F 76% 29.89 in 10.0 mi NW 10.4 mph - N/A   Overcast
1:53 PM 43.0 °F 35.4 °F 36.0 °F 76% 29.91 in 10.0 mi NNW 16.1 mph - N/A   Overcast
2:53 PM 42.1 °F 34.5 °F 36.0 °F 79% 29.94 in 10.0 mi NNW 15.0 mph - N/A   Overcast
3:29 PM 42.8 °F 37.0 °F 35.6 °F 76% 29.95 in 10.0 mi NNW 10.4 mph - N/A   Overcast
3:53 PM 43.0 °F 38.8 °F 35.1 °F 74% 29.96 in 10.0 mi NNW 6.9 mph - N/A   Overcast
4:00 PM 42.8 °F 39.3 °F 35.6 °F 76% 29.96 in 10.0 mi NW 5.8 mph - N/A   Overcast
4:23 PM 42.8 °F 39.3 °F 35.6 °F 76% 29.96 in 10.0 mi NNW 5.8 mph - N/A   Overcast
4:36 PM 42.8 °F 37.0 °F 35.6 °F 76% 29.96 in 10.0 mi NW 10.4 mph - N/A   Overcast
4:53 PM 43.0 °F 37.7 °F 35.1 °F 74% 29.98 in 10.0 mi NNW 9.2 mph - N/A   Overcast
5:16 PM 42.8 °F 41.1 °F 35.6 °F 76% 29.96 in 10.0 mi WNW 3.5 mph - N/A   Mostly Cloudy
5:53 PM 39.0 °F 35.7 °F 35.1 °F 86% 29.98 in 10.0 mi North 4.6 mph - N/A   Mostly Cloudy
6:32 PM 41.0 °F - 35.6 °F 81% 29.98 in 10.0 mi Calm Calm - N/A   Partly Cloudy
6:53 PM 37.9 °F - 34.0 °F 86% 29.99 in 10.0 mi Calm Calm - N/A   Mostly Cloudy
7:53 PM 41.0 °F 38.0 °F 35.1 °F 79% 30.01 in 10.0 mi NNW 4.6 mph - N/A   Overcast
8:53 PM 41.0 °F 39.0 °F 35.1 °F 79% 30.03 in 10.0 mi NW 3.5 mph - N/A   Overcast
9:53 PM 42.1 °F - 35.1 °F 76% 30.04 in 10.0 mi Calm Calm - N/A   Overcast
10:53 PM 41.0 °F 39.0 °F 35.1 °F 79% 30.05 in 10.0 mi NW 3.5 mph - N/A   Overcast
11:53 PM 41.0 °F 38.0 °F 35.1 °F 79% 30.06 in 10.0 mi NW 4.6 mph - N/A   Overcast